Karmel — 9HA2896 — position and weather

sailwx.info

Track history (hours):
 
Tides and Currents Weather Stations Pressure Air Temp Water Temp Dewpoint Dewpoint Depression Visibility Wind Speed Wind Dir Waves Ship Positions

Karmel

Last reported at 2014-Oct-23 21:27 UTC. Time now 2014-Nov-01 11:06 UTC.
Position N 55°28' E 019°51'.
Warning: this ship's position is 8 days out of date.

Length 90 m; draft 4.2 m.

Type: Cargo ship. MMSI: 256632000.

Date/timePositionNaut miles runAvg speedWind from/ knotsBaromVisibWave heightAir tempDewpointWater temp
2014-Oct-23 21:27N 55°28' E 019°51'1310.8
2014-Oct-23 20:14N 55°16' E 019°42'1011.1
2014-Oct-23 19:22N 55°08' E 019°34'911.1
2014-Oct-23 18:31N 54°59' E 019°26'1111.1
2014-Oct-23 17:33N 54°50' E 019°17'1110.9
2014-Oct-23 16:33N 54°42' E 019°04'1110.8
2014-Oct-23 15:33N 54°34' E 018°52'1111.1
2014-Oct-23 14:34N 54°26' E 018°39'3 2.6
2014-Oct-23 13:33N 54°23' E 018°40'0 0.0
2014-Oct-23 12:33N 54°23' E 018°40'0 0.0
2014-Oct-23 11:30N 54°23' E 018°40'0 0.0
2014-Oct-23 10:33N 54°23' E 018°40'0 0.0
2014-Oct-23 09:31N 54°23' E 018°40'0 0.0
2014-Oct-23 08:33N 54°23' E 018°40'0 0.0
2014-Oct-23 07:33N 54°23' E 018°40'0 0.0
2014-Oct-23 06:33N 54°23' E 018°40'0 0.0
2014-Oct-23 05:33N 54°23' E 018°40'0 0.0
2014-Oct-23 04:33N 54°23' E 018°40'0 0.0
2014-Oct-23 03:33N 54°23' E 018°40'0 0.0
2014-Oct-23 02:33N 54°23' E 018°40'0 0.0
2014-Oct-23 01:33N 54°23' E 018°40'0 0.0
2014-Oct-23 00:33N 54°23' E 018°40'0 0.0
2014-Oct-22 23:34N 54°23' E 018°40'0 0.0
2014-Oct-22 22:33N 54°23' E 018°40'0 0.0
2014-Oct-22 21:33N 54°23' E 018°40'0 0.0
2014-Oct-22 20:33N 54°23' E 018°40'0 0.0
2014-Oct-22 19:33N 54°23' E 018°40'0 0.0
2014-Oct-22 18:33N 54°23' E 018°40'0 0.0
2014-Oct-22 17:33N 54°23' E 018°40'0 0.0
2014-Oct-22 16:33N 54°23' E 018°40'0 0.0
2014-Oct-22 15:33N 54°23' E 018°40'0 0.0
2014-Oct-22 14:33N 54°23' E 018°40'0 0.0
2014-Oct-22 13:33N 54°23' E 018°40'0 0.0
2014-Oct-22 12:33N 54°23' E 018°40'0 0.0
2014-Oct-22 11:33N 54°23' E 018°40'4 4.0
2014-Oct-22 10:33N 54°27' E 018°41'1110.8
2014-Oct-22 09:33N 54°36' E 018°53'1110.7
2014-Oct-22 08:33N 54°46' E 018°57'1010.3
2014-Oct-22 07:33N 54°53' E 018°43'11 9.9
2014-Oct-22 06:27N 54°56' E 018°26'136 2.6
2014-Oct-20 03:06N 55°56' E 014°52'5 9.2
2014-Oct-20 02:33N 55°56' E 015°00'  
2014-Oct-15 18:07N 55°36' E 015°20'610.1
2014-Oct-15 17:32N 55°33' E 015°11'1310.1
2014-Oct-15 16:15N 55°27' E 014°51'810.0
2014-Oct-15 15:25N 55°23' E 014°38'55 9.3
2014-Oct-15 09:33N 55°14' E 013°04'1010.0
2014-Oct-15 08:33N 55°16' E 012°47'8 8.2
2014-Oct-15 07:33N 55°23' E 012°39'1010.3
2014-Oct-15 06:33N 55°33' E 012°42'9 8.7
2014-Oct-15 05:33N 55°42' E 012°41'9 9.0
2014-Oct-15 04:33N 55°51' E 012°39'10 9.9
2014-Oct-15 03:33N 56°01' E 012°38'8 7.7
2014-Oct-15 02:33N 56°07' E 012°30'10 9.7
2014-Oct-15 01:33N 56°11' E 012°14'  
Track history (hours):
 
Tides and Currents Weather Stations Pressure Air Temp Water Temp Dewpoint Dewpoint Depression Visibility Wind Speed Wind Dir Waves Ship Positions

Karmel

Last reported at 2014-Oct-23 21:27 UTC. Time now 2014-Nov-01 11:06 UTC.
Position N 55°28' E 019°51'.
Warning: this ship's position is 8 days out of date.

Length 90 m; draft 4.2 m.

Type: Cargo ship. MMSI: 256632000.

Date/timePositionNaut miles runAvg speedWind from/ knotsBaromVisibWave heightAir tempDewpointWater temp
2014-Oct-23 21:27N 55°28' E 019°51'1310.8
2014-Oct-23 20:14N 55°16' E 019°42'1011.1
2014-Oct-23 19:22N 55°08' E 019°34'911.1
2014-Oct-23 18:31N 54°59' E 019°26'1111.1
2014-Oct-23 17:33N 54°50' E 019°17'1110.9
2014-Oct-23 16:33N 54°42' E 019°04'1110.8
2014-Oct-23 15:33N 54°34' E 018°52'1111.1
2014-Oct-23 14:34N 54°26' E 018°39'3 2.6
2014-Oct-23 13:33N 54°23' E 018°40'0 0.0
2014-Oct-23 12:33N 54°23' E 018°40'0 0.0
2014-Oct-23 11:30N 54°23' E 018°40'0 0.0
2014-Oct-23 10:33N 54°23' E 018°40'0 0.0
2014-Oct-23 09:31N 54°23' E 018°40'0 0.0
2014-Oct-23 08:33N 54°23' E 018°40'0 0.0
2014-Oct-23 07:33N 54°23' E 018°40'0 0.0
2014-Oct-23 06:33N 54°23' E 018°40'0 0.0
2014-Oct-23 05:33N 54°23' E 018°40'0 0.0
2014-Oct-23 04:33N 54°23' E 018°40'0 0.0
2014-Oct-23 03:33N 54°23' E 018°40'0 0.0
2014-Oct-23 02:33N 54°23' E 018°40'0 0.0
2014-Oct-23 01:33N 54°23' E 018°40'0 0.0
2014-Oct-23 00:33N 54°23' E 018°40'0 0.0
2014-Oct-22 23:34N 54°23' E 018°40'0 0.0
2014-Oct-22 22:33N 54°23' E 018°40'0 0.0
2014-Oct-22 21:33N 54°23' E 018°40'0 0.0
2014-Oct-22 20:33N 54°23' E 018°40'0 0.0
2014-Oct-22 19:33N 54°23' E 018°40'0 0.0
2014-Oct-22 18:33N 54°23' E 018°40'0 0.0
2014-Oct-22 17:33N 54°23' E 018°40'0 0.0
2014-Oct-22 16:33N 54°23' E 018°40'0 0.0
2014-Oct-22 15:33N 54°23' E 018°40'0 0.0
2014-Oct-22 14:33N 54°23' E 018°40'0 0.0
2014-Oct-22 13:33N 54°23' E 018°40'0 0.0
2014-Oct-22 12:33N 54°23' E 018°40'0 0.0
2014-Oct-22 11:33N 54°23' E 018°40'4 4.0
2014-Oct-22 10:33N 54°27' E 018°41'1110.8
2014-Oct-22 09:33N 54°36' E 018°53'1110.7
2014-Oct-22 08:33N 54°46' E 018°57'1010.3
2014-Oct-22 07:33N 54°53' E 018°43'11 9.9
2014-Oct-22 06:27N 54°56' E 018°26'136 2.6
2014-Oct-20 03:06N 55°56' E 014°52'5 9.2
2014-Oct-20 02:33N 55°56' E 015°00'  
2014-Oct-15 18:07N 55°36' E 015°20'610.1
2014-Oct-15 17:32N 55°33' E 015°11'1310.1
2014-Oct-15 16:15N 55°27' E 014°51'810.0
2014-Oct-15 15:25N 55°23' E 014°38'55 9.3
2014-Oct-15 09:33N 55°14' E 013°04'1010.0
2014-Oct-15 08:33N 55°16' E 012°47'8 8.2
2014-Oct-15 07:33N 55°23' E 012°39'1010.3
2014-Oct-15 06:33N 55°33' E 012°42'9 8.7
2014-Oct-15 05:33N 55°42' E 012°41'9 9.0
2014-Oct-15 04:33N 55°51' E 012°39'10 9.9
2014-Oct-15 03:33N 56°01' E 012°38'8 7.7
2014-Oct-15 02:33N 56°07' E 012°30'10 9.7
2014-Oct-15 01:33N 56°11' E 012°14'  

Dump ship's entire track history